Time,TemperatureF,DewpointF,PressureIn,WindDirection,WindDirectionDegrees,WindSpeedMPH,WindSpeedGustMPH,Humidity,HourlyPrecipIn,Conditions,Clouds,dailyrainin,SoftwareType,DateUTC
2013-05-20 00:02:00,61.0,61.0,-100.00,ESE,105,6.0,7.0,99,0.00,,,-99.99,,2013-05-20 05:02:00,
2013-05-20 00:12:00,61.0,61.0,-100.00,ESE,110,6.0,8.0,99,0.00,,,-99.99,,2013-05-20 05:12:00,
2013-05-20 00:21:00,61.0,61.0,-100.00,ESE,120,5.0,7.0,99,0.00,,,-99.99,,2013-05-20 05:21:00,
2013-05-20 00:32:00,61.0,61.0,-100.00,ESE,120,4.0,8.0,99,0.00,,,-99.99,,2013-05-20 05:32:00,
2013-05-20 00:42:00,61.0,61.0,-100.00,ESE,120,4.0,8.0,99,0.00,,,-99.99,,2013-05-20 05:42:00,
2013-05-20 00:51:00,61.0,61.0,-100.00,SSW,210,1.0,5.0,99,0.00,,,-99.99,,2013-05-20 05:51:00,
2013-05-20 01:01:00,61.0,61.0,-100.00,SSW,210,1.0,5.0,99,0.00,,,-99.99,,2013-05-20 06:01:00,
2013-05-20 01:11:00,61.0,60.0,-100.00,SE,145,3.0,4.0,99,0.00,,,-99.99,,2013-05-20 06:11:00,
2013-05-20 01:21:00,61.0,61.0,-100.00,SSE,155,4.0,4.0,99,0.01,,,-99.99,,2013-05-20 06:21:00,
2013-05-20 01:32:00,61.0,61.0,-100.00,SSE,150,7.0,10.0,99,0.00,,,-99.99,,2013-05-20 06:32:00,
2013-05-20 01:41:00,61.0,61.0,-100.00,SSE,150,7.0,10.0,99,0.00,,,-99.99,,2013-05-20 06:41:00,
2013-05-20 01:52:00,61.0,61.0,-100.00,SE,130,10.0,14.0,99,0.01,,,-99.99,,2013-05-20 06:52:00,
2013-05-20 02:01:00,61.0,61.0,-100.00,SE,130,10.0,14.0,99,0.01,,,-99.99,,2013-05-20 07:01:00,
2013-05-20 02:12:00,61.0,61.0,-100.00,WSW,240,10.0,18.0,99,0.00,,,-99.99,,2013-05-20 07:12:00,
2013-05-20 02:21:00,61.0,61.0,-100.00,SSW,195,9.0,15.0,99,0.00,,,-99.99,,2013-05-20 07:21:00,
2013-05-20 02:32:00,61.0,61.0,-100.00,SSW,200,7.0,10.0,99,0.00,,,-99.99,,2013-05-20 07:32:00,
2013-05-20 02:42:00,61.0,61.0,-100.00,SSW,200,7.0,10.0,99,0.00,,,-99.99,,2013-05-20 07:42:00,
2013-05-20 02:52:00,61.0,61.0,-100.00,SSW,200,7.0,12.0,99,0.00,,,-99.99,,2013-05-20 07:52:00,
2013-05-20 03:01:00,61.0,61.0,-100.00,SSW,200,7.0,12.0,99,0.00,,,-99.99,,2013-05-20 08:01:00,
2013-05-20 03:11:00,61.0,61.0,-100.00,SSW,195,10.0,12.0,99,0.00,,,-99.99,,2013-05-20 08:11:00,
2013-05-20 03:21:00,62.0,61.0,-100.00,South,190,9.0,13.0,98,0.00,,,-99.99,,2013-05-20 08:21:00,
2013-05-20 03:32:00,62.0,62.0,-100.00,SSW,195,11.0,16.0,98,0.00,,,-99.99,,2013-05-20 08:32:00,
2013-05-20 03:41:00,62.0,62.0,-100.00,SSW,195,11.0,16.0,98,0.00,,,-99.99,,2013-05-20 08:41:00,
2013-05-20 03:51:00,62.0,62.0,-100.00,South,185,8.0,13.0,97,0.00,,,-99.99,,2013-05-20 08:51:00,
2013-05-20 04:02:00,62.0,62.0,-100.00,South,185,8.0,13.0,97,0.00,,,-99.99,,2013-05-20 09:02:00,
2013-05-20 04:12:00,62.0,62.0,-100.00,South,185,7.0,10.0,97,0.00,,,-99.99,,2013-05-20 09:12:00,
2013-05-20 04:21:00,62.0,62.0,-100.00,SSW,195,8.0,11.0,97,0.00,,,-99.99,,2013-05-20 09:21:00,
2013-05-20 04:32:00,62.0,61.0,-100.00,South,190,10.0,11.0,96,0.00,,,-99.99,,2013-05-20 09:32:00,
2013-05-20 04:43:00,62.0,61.0,-100.00,South,190,10.0,11.0,96,0.00,,,-99.99,,2013-05-20 09:43:00,
2013-05-20 04:52:00,62.0,61.0,-100.00,South,180,8.0,10.0,96,0.00,,,-99.99,,2013-05-20 09:52:00,
2013-05-20 05:03:00,62.0,61.0,-100.00,South,180,8.0,10.0,96,0.00,,,-99.99,,2013-05-20 10:03:00,
2013-05-20 05:12:00,62.0,61.0,-100.00,South,180,8.0,9.0,96,0.00,,,-99.99,,2013-05-20 10:12:00,
2013-05-20 05:22:00,62.0,60.0,-100.00,South,185,9.0,11.0,96,0.00,,,-99.99,,2013-05-20 10:22:00,
2013-05-20 05:32:00,61.0,60.0,-100.00,South,185,7.0,10.0,96,0.00,,,-99.99,,2013-05-20 10:32:00,
2013-05-20 05:42:00,61.0,60.0,-100.00,South,185,7.0,10.0,96,0.00,,,-99.99,,2013-05-20 10:42:00,
2013-05-20 05:52:00,61.0,60.0,-100.00,SSW,195,8.0,10.0,96,0.00,,,-99.99,,2013-05-20 10:52:00,
2013-05-20 06:02:00,61.0,60.0,-100.00,SSW,195,8.0,10.0,96,0.00,,,-99.99,,2013-05-20 11:02:00,
2013-05-20 06:12:00,61.0,60.0,-100.00,SSW,200,8.0,11.0,96,0.00,,,-99.99,,2013-05-20 11:12:00,
2013-05-20 06:21:00,61.0,60.0,-100.00,South,190,8.0,11.0,96,0.00,,,-99.99,,2013-05-20 11:21:00,
2013-05-20 06:32:00,62.0,60.0,-100.00,South,190,7.0,9.0,95,0.00,,,-99.99,,2013-05-20 11:32:00,
2013-05-20 06:41:00,62.0,60.0,-100.00,South,190,7.0,9.0,95,0.00,,,-99.99,,2013-05-20 11:41:00,
2013-05-20 06:51:00,62.0,60.0,-100.00,SSW,195,7.0,9.0,93,0.00,,,-99.99,,2013-05-20 11:51:00,
2013-05-20 07:01:00,62.0,60.0,-100.00,SSW,195,7.0,9.0,93,0.00,,,-99.99,,2013-05-20 12:01:00,
2013-05-20 07:11:00,63.0,60.0,-100.00,South,190,7.0,10.0,92,0.00,,,-99.99,,2013-05-20 12:11:00,
2013-05-20 07:21:00,63.0,60.0,-100.00,SSW,195,7.0,11.0,91,0.00,,,-99.99,,2013-05-20 12:21:00,
2013-05-20 07:32:00,63.0,60.0,-100.00,South,190,11.0,14.0,89,0.00,,,-99.99,,2013-05-20 12:32:00,
2013-05-20 07:41:00,63.0,60.0,-100.00,South,190,11.0,14.0,89,0.00,,,-99.99,,2013-05-20 12:41:00,
2013-05-20 07:52:00,64.0,60.0,-100.00,SSW,195,14.0,22.0,86,0.00,,,-99.99,,2013-05-20 12:52:00,
2013-05-20 08:01:00,64.0,60.0,-100.00,SSW,195,14.0,22.0,86,0.00,,,-99.99,,2013-05-20 13:01:00,
2013-05-20 08:11:00,65.0,60.0,-100.00,SSW,200,12.0,22.0,85,0.00,,,-99.99,,2013-05-20 13:11:00,
2013-05-20 08:22:00,65.0,60.0,-100.00,SSW,205,12.0,24.0,84,0.00,,,-99.99,,2013-05-20 13:22:00,
2013-05-20 08:31:00,66.0,60.0,-100.00,SSW,205,16.0,23.0,81,0.00,,,-99.99,,2013-05-20 13:31:00,
2013-05-20 08:41:00,66.0,60.0,-100.00,SSW,205,16.0,23.0,81,0.00,,,-99.99,,2013-05-20 13:41:00,
2013-05-20 08:52:00,67.0,61.0,-100.00,SSW,205,17.0,30.0,79,0.00,,,-99.99,,2013-05-20 13:52:00,
2013-05-20 09:01:00,67.0,61.0,-100.00,SSW,205,17.0,30.0,79,0.00,,,-99.99,,2013-05-20 14:01:00,
2013-05-20 09:11:00,68.0,61.0,-100.00,SSW,210,17.0,24.0,78,0.00,,,-99.99,,2013-05-20 14:11:00,
2013-05-20 09:22:00,68.0,60.0,-100.00,SW,215,20.0,26.0,75,0.00,,,-99.99,,2013-05-20 14:22:00,
2013-05-20 09:32:00,69.0,60.0,-100.00,SSW,205,16.0,26.0,73,0.00,,,-99.99,,2013-05-20 14:32:00,
2013-05-20 09:41:00,69.0,60.0,-100.00,SSW,205,16.0,26.0,73,0.00,,,-99.99,,2013-05-20 14:41:00,
2013-05-20 09:52:00,70.0,60.0,-100.00,SW,215,19.0,26.0,70,0.00,,,-99.99,,2013-05-20 14:52:00,
2013-05-20 10:01:00,70.0,60.0,-100.00,SW,215,19.0,26.0,70,0.00,,,-99.99,,2013-05-20 15:01:00,
2013-05-20 10:11:00,71.0,60.0,-100.00,SSW,205,20.0,29.0,69,0.00,,,-99.99,,2013-05-20 15:11:00,
2013-05-20 10:21:00,71.0,60.0,-100.00,SSW,200,16.0,28.0,69,0.00,,,-99.99,,2013-05-20 15:21:00,
2013-05-20 10:33:00,72.0,60.0,-100.00,SSW,210,17.0,29.0,67,0.00,,,-99.99,,2013-05-20 15:33:00,
2013-05-20 10:42:00,72.0,60.0,-100.00,SSW,210,17.0,29.0,67,0.00,,,-99.99,,2013-05-20 15:42:00,
2013-05-20 10:53:00,73.0,60.0,-100.00,SSW,210,21.0,30.0,63,0.00,,,-99.99,,2013-05-20 15:53:00,
2013-05-20 11:03:00,73.0,60.0,-100.00,SSW,210,21.0,30.0,63,0.00,,,-99.99,,2013-05-20 16:03:00,
2013-05-20 11:12:00,73.0,59.0,-100.00,SSW,210,19.0,31.0,61,0.00,,,-99.99,,2013-05-20 16:12:00,
2013-05-20 11:22:00,73.0,59.0,-100.00,SW,215,22.0,29.0,61,0.00,,,-99.99,,2013-05-20 16:22:00,
2013-05-20 11:33:00,74.0,59.0,-100.00,SW,225,21.0,29.0,60,0.00,,,-99.99,,2013-05-20 16:33:00,
2013-05-20 11:42:00,74.0,59.0,-100.00,SW,225,21.0,29.0,60,0.00,,,-99.99,,2013-05-20 16:42:00,
2013-05-20 11:52:00,75.0,58.0,-100.00,SW,215,24.0,32.0,56,0.00,,,-99.99,,2013-05-20 16:52:00,
2013-05-20 12:02:00,75.0,58.0,-100.00,SW,215,24.0,32.0,56,0.00,,,-99.99,,2013-05-20 17:02:00,
2013-05-20 12:12:00,75.0,59.0,-100.00,SW,215,22.0,29.0,56,0.00,,,-99.99,,2013-05-20 17:12:00,
2013-05-20 12:22:00,75.0,60.0,-100.00,SSW,210,20.0,26.0,57,0.00,,,-99.99,,2013-05-20 17:22:00,
2013-05-20 12:33:00,76.0,59.0,-100.00,SW,225,22.0,29.0,56,0.00,,,-99.99,,2013-05-20 17:33:00,
2013-05-20 12:45:00,76.0,59.0,-100.00,SW,225,22.0,29.0,56,0.00,,,-99.99,,2013-05-20 17:45:00,
2013-05-20 12:53:00,76.0,57.0,-100.00,SW,230,16.0,34.0,52,0.00,,,-99.99,,2013-05-20 17:53:00,
2013-05-20 13:02:00,76.0,57.0,-100.00,SW,230,16.0,34.0,52,0.00,,,-99.99,,2013-05-20 18:02:00,
2013-05-20 13:12:00,76.0,57.0,-100.00,SW,235,18.0,27.0,51,0.00,,,-99.99,,2013-05-20 18:12:00,
2013-05-20 13:23:00,78.0,57.0,-100.00,SSW,210,19.0,29.0,48,0.00,,,-99.99,,2013-05-20 18:23:00,
2013-05-20 13:32:00,78.0,57.0,-100.00,SW,220,16.0,27.0,48,0.00,,,-99.99,,2013-05-20 18:32:00,
2013-05-20 13:41:00,78.0,57.0,-100.00,SW,220,16.0,27.0,48,0.00,,,-99.99,,2013-05-20 18:41:00,
2013-05-20 13:55:00,78.0,56.0,-100.00,SW,225,18.0,30.0,47,0.00,,,-99.99,,2013-05-20 18:55:00,
2013-05-20 14:04:00,78.0,56.0,-100.00,SW,225,18.0,30.0,47,0.00,,,-99.99,,2013-05-20 19:04:00,
2013-05-20 14:11:00,78.0,56.0,-100.00,SW,230,19.0,28.0,47,0.00,,,-99.99,,2013-05-20 19:11:00,
2013-05-20 14:21:00,78.0,56.0,-100.00,South,190,14.0,26.0,47,0.00,,,-99.99,,2013-05-20 19:21:00,
2013-05-20 14:32:00,79.0,57.0,-100.00,SSW,205,16.0,27.0,47,0.00,,,-99.99,,2013-05-20 19:32:00,
2013-05-20 14:41:00,79.0,57.0,-100.00,SSW,205,16.0,27.0,47,0.00,,,-99.99,,2013-05-20 19:41:00,
2013-05-20 14:52:00,79.0,58.0,-100.00,SSW,210,13.0,22.0,48,0.00,,,-99.99,,2013-05-20 19:52:00,
2013-05-20 15:01:00,79.0,58.0,-100.00,SSW,210,13.0,22.0,48,0.00,,,-99.99,,2013-05-20 20:01:00,
2013-05-20 15:12:00,79.0,58.0,-100.00,South,190,11.0,21.0,48,0.00,,,-99.99,,2013-05-20 20:12:00,
2013-05-20 15:21:00,79.0,59.0,-100.00,SSW,195,14.0,26.0,50,0.00,,,-99.99,,2013-05-20 20:21:00,
2013-05-20 15:32:00,80.0,61.0,-100.00,SSW,200,13.0,23.0,52,0.00,,,-99.99,,2013-05-20 20:32:00,
2013-05-20 15:42:00,80.0,61.0,-100.00,SSW,200,13.0,23.0,52,0.00,,,-99.99,,2013-05-20 20:42:00,
2013-05-20 15:51:00,79.0,59.0,-100.00,SSW,195,11.0,21.0,50,0.00,,,-99.99,,2013-05-20 20:51:00,
2013-05-20 16:01:00,79.0,59.0,-100.00,SSW,195,11.0,21.0,50,0.00,,,-99.99,,2013-05-20 21:01:00,
2013-05-20 16:11:00,79.0,60.0,-100.00,South,175,16.0,24.0,53,0.00,,,-99.99,,2013-05-20 21:11:00,
2013-05-20 16:21:00,79.0,60.0,-100.00,South,185,17.0,25.0,52,0.00,,,-99.99,,2013-05-20 21:21:00,
2013-05-20 16:33:00,79.0,59.0,-100.00,SSW,195,18.0,26.0,50,0.00,,,-99.99,,2013-05-20 21:33:00,
2013-05-20 16:43:00,79.0,59.0,-100.00,SSW,195,18.0,26.0,50,0.00,,,-99.99,,2013-05-20 21:43:00,
2013-05-20 16:53:00,79.0,59.0,-100.00,South,190,11.0,28.0,50,0.00,,,-99.99,,2013-05-20 21:53:00,
2013-05-20 17:02:00,79.0,59.0,-100.00,South,190,11.0,28.0,50,0.00,,,-99.99,,2013-05-20 22:02:00,
2013-05-20 17:12:00,79.0,60.0,-100.00,South,175,16.0,27.0,52,0.00,,,-99.99,,2013-05-20 22:12:00,
2013-05-20 17:23:00,79.0,60.0,-100.00,South,185,16.0,29.0,53,0.00,,,-99.99,,2013-05-20 22:23:00,
2013-05-20 17:33:00,78.0,62.0,-100.00,South,185,14.0,26.0,57,0.00,,,-99.99,,2013-05-20 22:33:00,
2013-05-20 17:42:00,78.0,62.0,-100.00,South,185,14.0,26.0,57,0.00,,,-99.99,,2013-05-20 22:42:00,
2013-05-20 17:52:00,79.0,64.0,-100.00,South,180,13.0,27.0,60,0.00,,,-99.99,,2013-05-20 22:52:00,
2013-05-20 18:02:00,79.0,64.0,-100.00,South,180,13.0,27.0,60,0.00,,,-99.99,,2013-05-20 23:02:00,
2013-05-20 18:12:00,78.0,63.0,-100.00,South,185,12.0,26.0,60,0.00,,,-99.99,,2013-05-20 23:12:00,
2013-05-20 18:22:00,77.0,62.0,-100.00,South,170,16.0,27.0,60,0.00,,,-99.99,,2013-05-20 23:22:00,
2013-05-20 18:32:00,76.0,62.0,-100.00,South,180,11.0,22.0,61,0.00,,,-99.99,,2013-05-20 23:32:00,
2013-05-20 18:42:00,76.0,62.0,-100.00,South,180,11.0,22.0,61,0.00,,,-99.99,,2013-05-20 23:42:00,
2013-05-20 18:52:00,76.0,62.0,-100.00,South,175,16.0,24.0,62,0.00,,,-99.99,,2013-05-20 23:52:00,
2013-05-20 19:01:00,76.0,62.0,-100.00,South,175,16.0,24.0,62,0.00,,,-99.99,,2013-05-21 00:01:00,
2013-05-20 19:11:00,75.0,62.0,-100.00,South,180,12.0,23.0,65,0.00,,,-99.99,,2013-05-21 00:11:00,
2013-05-20 19:21:00,75.0,63.0,-100.00,South,175,12.0,16.0,66,0.00,,,-99.99,,2013-05-21 00:21:00,
2013-05-20 19:32:00,75.0,63.0,-100.00,South,170,13.0,21.0,67,0.00,,,-99.99,,2013-05-21 00:32:00,
2013-05-20 19:41:00,75.0,63.0,-100.00,South,170,13.0,21.0,67,0.00,,,-99.99,,2013-05-21 00:41:00,
2013-05-20 19:52:00,74.0,63.0,-100.00,South,170,9.0,16.0,69,0.00,,,-99.99,,2013-05-21 00:52:00,
2013-05-20 20:01:00,74.0,63.0,-100.00,South,170,9.0,16.0,69,0.00,,,-99.99,,2013-05-21 01:01:00,
2013-05-20 20:11:00,73.0,63.0,-100.00,SSE,165,11.0,13.0,69,0.00,,,-99.99,,2013-05-21 01:11:00,
2013-05-20 20:21:00,73.0,63.0,-100.00,SSE,165,9.0,12.0,71,0.00,,,-99.99,,2013-05-21 01:21:00,
2013-05-20 20:32:00,73.0,64.0,-100.00,South,170,9.0,14.0,73,0.00,,,-99.99,,2013-05-21 01:32:00,
2013-05-20 20:42:00,73.0,64.0,-100.00,South,170,9.0,14.0,73,0.00,,,-99.99,,2013-05-21 01:42:00,
2013-05-20 20:52:00,72.0,64.0,-100.00,SSE,165,12.0,15.0,75,0.00,,,-99.99,,2013-05-21 01:52:00,
2013-05-20 21:02:00,72.0,64.0,-100.00,SSE,165,12.0,15.0,75,0.00,,,-99.99,,2013-05-21 02:02:00,
2013-05-20 21:11:00,72.0,65.0,-100.00,South,185,10.0,12.0,78,0.00,,,-99.99,,2013-05-21 02:11:00,
2013-05-20 21:21:00,71.0,65.0,-100.00,South,185,7.0,10.0,81,0.00,,,-99.99,,2013-05-21 02:21:00,
2013-05-20 21:32:00,70.0,65.0,-100.00,South,190,4.0,6.0,84,0.00,,,-99.99,,2013-05-21 02:32:00,
2013-05-20 21:41:00,70.0,65.0,-100.00,South,190,4.0,6.0,84,0.00,,,-99.99,,2013-05-21 02:41:00,
2013-05-20 21:52:00,70.0,66.0,-100.00,SSW,200,5.0,6.0,86,0.00,,,-99.99,,2013-05-21 02:52:00,
2013-05-20 22:02:00,70.0,66.0,-100.00,SSW,200,5.0,6.0,86,0.00,,,-99.99,,2013-05-21 03:02:00,
2013-05-20 22:11:00,70.0,66.0,-100.00,SSW,205,6.0,7.0,86,0.00,,,-99.99,,2013-05-21 03:11:00,
2013-05-20 22:21:00,70.0,66.0,-100.00,SSW,200,7.0,11.0,86,0.01,,,-99.99,,2013-05-21 03:21:00,
2013-05-20 22:33:00,64.0,59.0,-100.00,SW,225,9.0,23.0,83,0.03,,,-99.99,,2013-05-21 03:33:00,
2013-05-20 22:43:00,64.0,59.0,-100.00,SW,225,9.0,23.0,83,0.03,,,-99.99,,2013-05-21 03:43:00,
2013-05-20 22:53:00,64.0,58.0,-100.00,South,185,7.0,9.0,80,0.00,,,-99.99,,2013-05-21 03:53:00,
2013-05-20 23:03:00,64.0,58.0,-100.00,South,185,7.0,9.0,80,0.00,,,-99.99,,2013-05-21 04:03:00,
2013-05-20 23:13:00,64.0,59.0,-100.00,South,185,9.0,11.0,83,0.00,,,-99.99,,2013-05-21 04:13:00,
2013-05-20 23:23:00,64.0,59.0,-100.00,SSW,195,9.0,12.0,84,0.00,,,-99.99,,2013-05-21 04:23:00,
2013-05-20 23:33:00,63.0,60.0,-100.00,South,180,8.0,10.0,87,0.00,,,-99.99,,2013-05-21 04:33:00,
2013-05-20 23:42:00,63.0,60.0,-100.00,South,180,8.0,10.0,87,0.00,,,-99.99,,2013-05-21 04:42:00,
2013-05-20 23:52:00,63.0,60.0,-100.00,South,185,9.0,10.0,91,0.00,,,-99.99,,2013-05-21 04:52:00,